Miscellaneous Local Product
Issued by NWS North Platte, NE

Home | Current Version | Previous Version | Graphics & Text | Print | Product List | Glossary On
Versions: 1 2 3 4 5 6 7 8 9 10 11 12 13 14 15 16 17 18 19 20 21 22 23 24 25 26 27 28 29 30 31 32 33 34 35 36 37 38 39 40 41 42 43 44 45 46 47 48 49 50
884
AXUS43 KLBF 020310
MISLBF


WESTERN AND NORTH CENTRAL NEBRASKA HOURLY WEATHER ROUNDUP
NATIONAL WEATHER SERVICE NORTH PLATTE NE
1000 PM CDT SUN MAY 01 2016

NOTE: "FAIR" INDICATES FEW OR NO CLOUDS BELOW 12,000 FEET WITH NO
SIGNIFICANT WEATHER AND/OR OBSTRUCTIONS TO VISIBILITY.

NOTE: STATIONS NOT REPORTING VARIABLES SUCH AS SKY/WEATHER OR
PRESSURE ARE PROVIDED BY RAWS AND APRS NETWORKS AND ARE NOT UNDER
NATIONAL WEATHER SERVICE QUALITY CONTROL.

...OBSERVATIONS IN AND NEAR THE EASTERN PANHANDLE OF NEBRASKA...

CITY           SKY/WX    TMP DP  RH WIND       PRES   REMARKS
PINE RIDGE     CLEAR     40  31  70 E6        30.24R
CHADRON        CLEAR     41  32  70 CALM      30.24R
ALLIANCE       CLEAR     36  31  82 S5        30.24R WCI  32
SIDNEY         PTCLDY    35  29  78 W9        30.27R WCI  28
CRESCENT LAKE    N/A     39  33  78 SW5         N/A
BIG SPRINGS      N/A     44  37  76 W3          N/A
$$

...OBSERVATIONS IN NORTHERN NEBRASKA AND FAR SOUTHERN SOUTH DAKOTA...

CITY           SKY/WX    TMP DP  RH WIND       PRES   REMARKS
WINNER         FAIR      48  34  58 CALM      30.21R
VALENTINE      CLEAR     42  33  70 NW3       30.22R
THEDFORD       CLEAR     43  33  68 CALM      30.24R
AINSWORTH      CLEAR     45  34  66 CALM      30.22R
O`NEILL        CLEAR     45  38  74 CALM      30.21S
ORD            MOCLDY    43  38  82 NW5       30.20R
BROKEN BOW     CLEAR     39  35  86 N6        30.20R WCI  35
VALENTINE NWR    N/A     43  32  65 N3          N/A
BUTTE            N/A     48  36  63 CALM        N/A
HALSEY           N/A     44  32  62 CALM        N/A
CHAMBERS         N/A     42  34  73 CALM        N/A
EWING            N/A     44  38  79 CALM        N/A
$$

...OBSERVATIONS IN SOUTHWEST NEBRASKA AND FAR NORTHEAST COLORADO...

CITY           SKY/WX    TMP DP  RH WIND       PRES   REMARKS
HOLYOKE        FAIR      41  32  70 NW7       30.27R
IMPERIAL       CLEAR     41  33  73 NW8       30.25R
OGALLALA       CLEAR     37  32  83 NW7       30.26R WCI  31
NORTH PLATTE   CLEAR     43  34  70 N7        30.22R
MCCOOK         MOCLDY    49  37  63 CALM      30.21R
LEXINGTON      CLEAR     43  39  86 CALM      30.21R
PAXTON           N/A     48  36  63 CALM        N/A
STAPLETON        N/A     42  36  79 CALM        N/A
GOTHENBURG       N/A     49  34  56 CALM        N/A
CALLAWAY         N/A     45  35  67 NE5         N/A
$$

...OBSERVATIONS IN CENTRAL LINCOLN COUNTY AREA...

CITY           SKY/WX    TMP DP  RH WIND       PRES   REMARKS
N.P. AIRPORT   CLEAR     43  34  70 N7        30.22R
N.P. DOWNTOWN    N/A     45  36  70 CALM        N/A
N.P. HILLCREST   N/A     44  35  72 N10         N/A
$$

...SOME OBSERVATIONS FROM AROUND THE REGION...

CITY           SKY/WX    TMP DP  RH WIND       PRES   REMARKS
DENVER         CLOUDY    36  27  69 W6        30.28R WCI  31
LARAMIE        CLOUDY    27  20  75 SE7       30.26R WCI  19
CHEYENNE       PTCLDY    34  23  64 NW5       30.27R WCI  30
SCOTTSBLUFF    CLEAR     41  33  73 S8        30.25R
RAPID CITY     CLEAR     39  30  70 NE6       30.22R WCI  35
BISMARCK       CLEAR     49  32  52 CALM      30.16S
PIERRE         CLEAR     42  35  76 NW9       30.18R
SIOUX FALLS    CLEAR     46  35  65 CALM      30.16R
OMAHA          MOCLDY    49  45  86 N3        30.15S
GRAND ISLAND   CLOUDY    46  42  86 NW6       30.19S
KANSAS CITY    CLOUDY    49  44  83 N9        30.11R
WICHITA        CLOUDY    51  41  68 N14       30.17R
OKLAHOMA CITY  CLOUDY    54  45  71 N14       30.15R
DALLAS         PTCLDY    67  50  54 N13       30.04R
AMARILLO       CLOUDY    43  37  79 N9        30.25R
DODGE CITY     CLOUDY    44  39  82 N5        30.23R
HAYS           CLOUDY    45  34  65 N7        30.21S
GOODLAND       CLEAR     38  32  79 NW10      30.23S WCI  31
$$




USA.gov is the U.S. government's official web portal to all federal, state and local government web resources and services.